Regional Weather Roundup
Issued by NWS Newport/Morehead, NC

Current Version | Previous Version | Text Only | Print | Product List | Glossary On
Versions: 1 2 3 4 5 6 7 8 9 10 11 12 13 14 15 16 17 18 19 20 21 22 23 24 25 26 27 28 29 30 31 32 33 34 35 36 37 38 39 40 41 42 43 44 45 46 47 48 49 50
000
ASUS42 KMHX 150722
RWRMHX
WEATHER ROUNDUP FOR EASTERN NORTH CAROLINA
NATIONAL WEATHER SERVICE NEWPORT/MOREHEAD CITY NC
300 AM EDT TUE APR 15 2014

NOTE: "FAIR" INDICATES FEW OR NO CLOUDS BELOW 12,000 FEET
WITH NO SIGNIFICANT WEATHER AND/OR OBSTRUCTIONS TO VISIBILITY

NCZ015>017-031-032-045>047-102-103-150800-
NORTH COAST

CITY           SKY/WX    TMP DP  RH WIND       PRES   REMARKS
EDENTON        CLOUDY    69  66  93 S12       29.86F
ELIZABETH CITY CLOUDY    68  65  90 S12       29.87F
KITTY HAWK     CLOUDY    70  65  85 S12G22    29.88F
MANTEO         LGT RAIN  67  66  97 SW18      29.89F

$$

NCZ045>047-081-094-103-104-150800-
CENTRAL COAST

CITY           SKY/WX    TMP DP  RH WIND       PRES   REMARKS
FRISCO         MOCLDY    68  64  87 S20G26    29.91F
SWANQUARTER      N/A     68 N/A N/A S3G16     29.85F

$$

NCZ095-097-098-100-101-150800-
SOUTHERN COAST

CITY           SKY/WX    TMP DP  RH WIND       PRES   REMARKS
BEAUFORT       LGT RAIN  67  65  93 S13       29.88F FOG
CEDAR ISLAND     N/A     68 N/A N/A SE15G25   29.91F
JACKSONVILLE   CLOUDY    70  69  97 S14       29.86F
NEWPORT          N/A     68  66  94 S8G17       N/A
PINEY ISLAND   NOT AVBL
WILMINGTON     CLOUDY    71  67  87 S14       29.86F


$$

NCZ011>013-027>030-043-044-078>080-089-090>093-098-150800-
COASTAL PLAIN

CITY           SKY/WX    TMP DP  RH WIND       PRES   REMARKS
AHOSKIE        CLOUDY    69  64  84 S8        29.83F
CLINTON        CLOUDY    70  68  94 S7        29.84S
ELIZABETHTOWN  CLOUDY    71  69  93 S10G16    29.82F
GOLDSBORO      MOCLDY    69  69  98 S7        29.82F
GREENVILLE     MOCLDY    70  66  88 S9        29.87F
HAVELOCK       CLOUDY    70  66  87 S13G23    29.88F
KENANSVILLE    CLOUDY    69  66  88 S7        29.85F
KINSTON        MOCLDY    70  67  89 S13       29.86S
NEW BERN       LGT RAIN  72  67  84 S10G21    29.87F
RICHLANDS      CLOUDY    70  66  88 S20       29.86F
ROANOKE RAPIDS NOT AVBL
ROCKY MOUNT      N/A    N/A N/A N/A MISG      29.83F
WASHINGTON     MOCLDY    73  68  84 S8        29.85F
WHITEVILLE     CLOUDY    71  68  90 S10G20    29.83F

$$

AMZ130-135-150-152-154-156-158-170-250-252-270-ANZ085-086-088-633-658-670-150800-
MARINE OBSERVATIONS

STATION/POSITION TIME  TEMP    WIND        PRES    WAVE   SWELL
                       AIR SEA DIR/SP/G            HT/PER HT/PER
                 (UTC) (F)     (DEG/KT/KT) (MB)    (FT/S) (FT/S)
CHESAPEAKE LIGHT 0700   58     190/ 20/ 21 1011.7
BUOY 44014       0700   61 51  170/ 17/ 19 1012.4    8/ 8   5/ 8
DUCK             0700   67 46  170/ 17/ 19 1010.6
2E DUCK          0700      47                N/A     4/ 7
OREGON INLET     0700   69 71  160/ 13/ 18 1012.2
BUOY 44095       0700      65                N/A     7/ 7
HATTERAS CG      0700   69 66  160/ 16/ 22 1012.7
DIAMOND BUOY     NOT AVBL
CAPE LOOKOUT     0700   66     190/ 13/ 17 1011.9
BEAUFORT LAB     0700   66 66  180/ 12/ 16 1011.0
30 SE NEW RIVER  0700   69 64  180/ 16/ 19 1011.7    9/ 8
5 SE WRIGHTSVILL 0700   67 64  170/ 12/ 16 1011.0
FRYING PAN BUOY  0700   70 66  180/ 16/ 19 1011.1    8/ 8
BUOY 41001       NOT AVBL
BUOY 41002       NOT AVBL
BUOY 41004       NOT AVBL

$$



USA.gov is the U.S. government's official web portal to all federal, state and local government web resources and services.